Location: Montreal
(45.5087°N, 73.5540°W)
Time: 18:00:16
(UTC-04:00)

Envisat - Pass Details

Date: 07 February 2023
Orbit: 763 x 765 km, 98.2° (Epoch: 20 March)

Event Time Altitude Azimuth Distance (km) Brightness Sun altitude
Rises 03:14:24 0° 22° (NNE) 3,242 6.7 -40.8°
Reaches altitude 10° 03:16:58 10° 33° (NNE) 2,310 6.0 -40.4°
Enters shadow 03:18:11 16° 42° (NE) 1,917 5.5 -40.2°
